Weather History for Pittsfield, MA

Change the Weather History Date:

Friday, February 8, 2013

  Actual Average Record
Temperature  
Mean Temperature 24 °F 22 °F  
Max Temperature 28 °F 31 °F 50 °F (1933)
Min Temperature 19 °F 14 °F -18 °F (1963)
Degree Days  
Heating Degree Days 41 43  
Month to date heating degree days 360 348  
Since 1 July heating degree days 4176 4573  
Cooling Degree Days 0 0  
Month to date cooling degree days 0 0  
Year to date cooling degree days 0 0  
Moisture  
Dew Point 17 °F    
Average Humidity 71    
Maximum Humidity 91    
Minimum Humidity 50    
Precipitation  
Precipitation 0.19 in 0.09 in 0.61 in (1937)
Month to date precipitation 0.19 0.67  
Year to date precipitation 2.46 3.59  
Sea Level Pressure  
Sea Level Pressure 29.99 in    
Wind  
Wind Speed 12 mph (ENE)    
Max Wind Speed 24 mph    
Max Gust Speed 35 mph    
Visibility 4 miles    
Events Fog , Snow    
T = Trace of Precipitation, MM = Missing Value Source: NWS Daily Summary

Daily Weather History Graph

Daily Weather History Graph

Search for Another Location

Airport:

Trip Planner

Search our weather history database for the weather conditions in past years. The results will help you decide how hot, cold, wet, or windy it might be!

Date:

Astronomy

Feb. 08, 2013 Rise Set
Actual Time 6:58 AM EST 5:16 PM EST
Civil Twilight 6:29 AM EST 5:45 PM EST
Nautical Twilight 5:56 AM EST 6:19 PM EST
Astronomical Twilight 5:23 AM EST 6:51 PM EST
Moon 5:26 AM EST (2/8) 3:46 PM EST (2/8)
Length of Visible Light 11h 16m
Length of Day
10h 18m
Waning Crescent, 3% of the Moon is Illuminated
Feb 8
Waning Crescent
Feb 10
New
Feb 17
First Quarter
Feb 25
Full
Mar 4
Last Quarter

Hourly Weather History & Observations

Time (EST) Temp. Windchill Dew Point Humidity Pressure Visibility Wind Dir Wind Speed Gust Speed Precip Events Conditions
12:54 AM 23.0 °F 15.8 °F 7.0 °F 50% 30.35 in 10.0 mi East 5.8 mph - N/A   Overcast
1:54 AM 23.0 °F 13.1 °F 9.0 °F 55% 30.33 in 10.0 mi ESE 9.2 mph 20.7 mph N/A   Overcast
2:54 AM 21.9 °F 11.7 °F 8.1 °F 55% 30.30 in 10.0 mi East 9.2 mph - N/A   Overcast
3:22 AM 21.2 °F 12.6 °F 6.8 °F 54% 30.22 in 10.0 mi Variable 6.9 mph - N/A   Overcast
3:54 AM 21.9 °F 13.4 °F 7.0 °F 53% 30.27 in 10.0 mi East 6.9 mph - N/A   Overcast
4:54 AM 21.9 °F 12.5 °F 12.0 °F 66% 30.27 in 10.0 mi ESE 8.1 mph - N/A   Overcast
5:24 AM 21.2 °F 8.9 °F 14.0 °F 74% 30.19 in 10.0 mi ESE 12.7 mph - N/A   Overcast
5:54 AM 21.9 °F 13.4 °F 15.1 °F 75% 30.25 in 10.0 mi ESE 6.9 mph - N/A   Overcast
6:39 AM 21.2 °F 14.9 °F 15.8 °F 80% 30.17 in 10.0 mi Variable 4.6 mph - N/A   Overcast
6:54 AM 23.0 °F 13.1 °F 17.1 °F 78% 30.22 in 10.0 mi East 9.2 mph - N/A   Overcast
7:54 AM 23.0 °F 14.7 °F 18.0 °F 81% 30.21 in 8.0 mi East 6.9 mph - N/A   Overcast
8:31 AM 24.8 °F 16.9 °F 19.4 °F 80% 30.13 in 2.5 mi Variable 6.9 mph 17.3 mph 0.00 in Snow Light Snow
8:41 AM 24.8 °F 16.1 °F 19.4 °F 80% 30.13 in 5.0 mi East 8.1 mph 16.1 mph 0.00 in   Haze
8:54 AM 24.1 °F 15.2 °F 19.0 °F 81% 30.18 in 5.0 mi ESE 8.1 mph - 0.00 in   Haze
9:50 AM 24.8 °F 15.3 °F 19.4 °F 80% 30.11 in 4.0 mi East 9.2 mph 21.9 mph N/A   Haze
9:54 AM 25.0 °F 14.2 °F 19.0 °F 78% 30.16 in 3.0 mi East 11.5 mph 20.7 mph N/A   Haze
10:39 AM 26.6 °F 17.5 °F 19.4 °F 74% 30.08 in 4.0 mi ENE 9.2 mph 18.4 mph 0.00 in Snow Light Snow
10:54 AM 26.1 °F 15.6 °F 19.9 °F 78% 30.12 in 4.0 mi ENE 11.5 mph 20.7 mph 0.00 in Snow Light Snow
11:54 AM 27.0 °F 16.7 °F 19.9 °F 75% 30.06 in 6.0 mi East 11.5 mph 16.1 mph 0.00 in   Haze
12:54 PM 27.0 °F 15.2 °F 19.9 °F 75% 30.01 in 9.0 mi East 15.0 mph 26.5 mph N/A   Overcast
1:20 PM 26.6 °F 16.8 °F 21.2 °F 80% 29.94 in 2.0 mi East 10.4 mph 20.7 mph 0.00 in Snow Light Snow
1:22 PM 26.6 °F 16.2 °F 21.2 °F 80% 29.94 in 1.8 mi East 11.5 mph 19.6 mph 0.00 in Snow Light Snow
1:54 PM 26.1 °F 15.0 °F 21.9 °F 84% 29.96 in 1.2 mi ENE 12.7 mph 21.9 mph 0.00 in Snow Light Snow
2:54 PM 26.1 °F 14.5 °F 21.0 °F 81% 29.93 in 1.5 mi ENE 13.8 mph 19.6 mph 0.00 in Snow Light Snow
3:54 PM 24.1 °F 12.0 °F 19.0 °F 81% 29.89 in 1.2 mi ENE 13.8 mph 25.3 mph 0.00 in Snow Light Snow
4:17 PM 23.0 °F 11.7 °F 19.4 °F 86% 29.82 in 0.8 mi ENE 11.5 mph 23.0 mph 0.00 in Snow Light Snow
4:54 PM 23.0 °F 9.6 °F 19.0 °F 85% 29.85 in 0.8 mi ENE 16.1 mph 27.6 mph 0.00 in Snow Light Snow
5:17 PM 21.2 °F 8.3 °F 19.4 °F 93% 29.79 in 1.2 mi ENE 13.8 mph 25.3 mph 0.01 in Snow Light Snow
5:54 PM 21.9 °F 8.7 °F 18.0 °F 85% 29.84 in 1.2 mi ENE 15.0 mph 31.1 mph 0.01 in Snow Light Snow
6:54 PM 21.0 °F 6.2 °F 17.1 °F 85% 29.82 in 1.0 mi ENE 18.4 mph 29.9 mph 0.01 in Snow Light Snow
7:21 PM 19.4 °F 3.6 °F 15.8 °F 86% 29.74 in 1.0 mi NE 19.6 mph 31.1 mph 0.00 in Snow Light Snow
7:32 PM 19.4 °F 3.6 °F 15.8 °F 86% 29.74 in 0.8 mi ENE 19.6 mph 33.4 mph 0.00 in Snow Light Snow
7:54 PM 19.9 °F 6.7 °F 17.1 °F 89% 29.79 in 0.5 mi ENE 13.8 mph 24.2 mph 0.01 in Fog , Snow Snow
8:54 PM 19.9 °F 6.7 °F 16.0 °F 85% 29.76 in 0.8 mi NE 13.8 mph - 0.03 in Snow Light Snow
9:50 PM 19.4 °F 6.6 °F 15.8 °F 86% 29.69 in 1.0 mi NNE 12.7 mph - 0.02 in Snow Light Snow
9:54 PM 19.0 °F 5.0 °F 16.0 °F 88% 29.74 in 1.2 mi NNE 15.0 mph 21.9 mph 0.02 in Snow Light Snow
10:16 PM 19.4 °F 5.0 °F 15.8 °F 86% 29.69 in 1.2 mi NNE 16.1 mph 25.3 mph 0.00 in Snow Light Snow
10:34 PM 19.4 °F 6.6 °F 15.8 °F 86% 29.69 in 0.8 mi NNE 12.7 mph 24.2 mph 0.01 in Snow Light Snow
10:54 PM 19.0 °F 8.2 °F 16.0 °F 88% 29.75 in 0.8 mi NNE 9.2 mph 18.4 mph 0.02 in Snow Light Snow
11:47 PM 19.4 °F 9.5 °F 17.6 °F 93% 29.71 in 0.5 mi North 8.1 mph - 0.07 in Fog , Snow Snow
11:54 PM 19.9 °F 12.1 °F 18.0 °F 92% 29.76 in 0.5 mi North 5.8 mph - 0.08 in Fog , Snow Snow